DateTimeUTC,F1_A11,F1_S11,BsB_S11,BsG_S11,BsR_S11,BbsB_S11,BbsG_S11,BbsR_S11,BaB_A11,BaG_A11,BaR_A11,Tu_S11,T_S11,Uu_S11,U_S11,P_S11,T1_A11
2021-02-10T18:00:00Z,00000200,21000000,,,,,,,-000.47,-000.07,-000.27,15.8,23.2,,00.0,0616.3,31.0
2021-02-10T18:01:00Z,00000200,21000000,,,,,,,0000.03,-000.57,0000.00,15.8,23.2,,00.0,0616.3,31.0
2021-02-10T18:02:00Z,00000200,21000000,,,,,,,-000.36,-000.08,-000.06,15.7,23.2,,00.0,0616.4,31.0
2021-02-10T18:03:00Z,00000200,61000000,,,,,,,0000.19,0000.00,-000.15,15.7,23.2,,00.0,0616.4,31.0
2021-02-10T18:04:00Z,00000200,41000000,-000.11,0000.16,0000.48,-000.39,0000.06,0000.16,0000.04,0000.14,0000.31,15.9,23.0,,00.0,0617.3,31.0
2021-02-10T18:05:00Z,00000200,01000000,0000.35,0000.28,0000.06,-000.13,-000.09,-000.27,0000.47,0000.04,0000.41,15.9,22.9,,00.0,0617.3,31.0
2021-02-10T18:06:00Z,00000200,01000000,0000.47,0000.27,0000.27,0000.37,-000.24,-000.04,0000.20,0000.42,0000.11,15.9,22.9,,00.0,0617.3,30.9
2021-02-10T18:07:00Z,00000200,01000000,0000.94,0000.06,-000.16,0000.03,0000.00,0000.04,0000.42,0000.64,0000.10,15.9,22.9,,00.0,0617.4,31.0
2021-02-10T18:08:00Z,00000200,01000000,0000.74,-000.08,0000.20,0000.15,-000.06,-000.04,0000.19,0000.30,0000.42,16.0,22.9,,00.0,0617.3,31.0
2021-02-10T18:09:00Z,00000200,01000000,0000.20,0000.19,0000.13,0000.36,-000.04,-000.25,0000.15,0000.30,0000.44,16.1,22.9,,00.0,0617.4,31.0
2021-02-10T18:10:00Z,00000200,01000000,0000.40,-000.27,0000.23,-000.27,0000.13,0000.11,0000.34,0000.40,0000.08,16.2,23.0,,00.0,0617.5,31.0
2021-02-10T18:11:00Z,00000200,01000000,-000.01,0000.20,-000.17,0000.01,0000.06,-000.01,0000.29,0000.27,0000.40,16.3,23.0,,00.0,0617.6,31.0
2021-02-10T18:12:00Z,00000200,01000000,0000.73,0000.43,-000.07,0000.34,-000.17,-000.19,-000.14,-000.22,-000.45,16.4,23.1,,00.0,0617.6,31.0
2021-02-10T18:13:00Z,00000200,01000000,0000.50,0000.65,0000.41,0000.22,-000.09,-000.01,0000.01,-000.10,0000.40,16.5,23.1,,00.0,0617.6,31.1
2021-02-10T18:14:00Z,00000200,01000000,0000.65,0000.35,0000.12,0000.05,-000.19,0000.10,0000.56,0000.19,0000.27,16.6,23.2,,00.0,0617.6,31.1
2021-02-10T18:15:00Z,00000200,01000000,0000.77,0000.07,0000.23,0000.06,0000.07,-000.13,0000.07,0000.71,-000.11,16.7,23.2,,00.0,0617.6,31.1
2021-02-10T18:16:00Z,00000200,01000000,0000.56,0000.01,-000.02,0000.04,0000.16,-000.23,0000.25,-000.26,0000.29,16.8,23.3,,00.0,0617.6,31.1
2021-02-10T18:17:00Z,00000200,01000000,0000.08,0000.33,0000.07,0000.66,0000.06,-000.00,-000.29,0000.41,0000.15,16.8,23.3,,00.0,0617.7,31.1
2021-02-10T18:18:00Z,00000200,01000000,0000.37,0000.02,-000.08,0000.19,0000.10,-000.12,0000.09,-000.15,-000.29,16.9,23.3,,00.0,0617.7,31.1
2021-02-10T18:19:00Z,00000200,01000000,0000.42,0000.50,-000.10,-000.01,0000.04,-000.02,-000.13,-000.17,-000.15,16.8,23.4,,00.0,0617.7,31.1
2021-02-10T18:20:00Z,00000200,01000000,0000.34,0000.13,0000.05,0000.08,0000.03,-000.00,0000.12,-000.10,0000.14,16.8,23.4,,00.0,0617.8,31.1
2021-02-10T18:21:00Z,00000200,01000000,0000.57,-000.07,-000.06,-000.43,-000.06,-000.31,-000.03,-000.01,-000.05,16.8,23.3,,00.0,0617.8,31.0
2021-02-10T18:22:00Z,00000200,01000000,0000.39,0000.13,0000.22,-000.09,-000.03,0000.24,0000.45,0000.42,0000.29,16.8,23.3,,00.0,0617.8,31.0
2021-02-10T18:23:00Z,00000200,01000000,0000.36,0000.12,0000.02,0000.06,0000.09,0000.14,0000.10,0000.39,0000.24,16.8,23.4,,00.0,0617.8,31.1
2021-02-10T18:24:00Z,00000200,01000000,0000.44,0000.36,-000.00,0000.48,0000.24,-000.04,0000.02,-000.06,0000.14,16.9,23.4,,00.0,0617.8,31.1
2021-02-10T18:25:00Z,00000200,01000000,0000.27,0000.13,0000.35,-000.03,0000.08,0000.09,0000.21,0000.23,0000.04,17.0,23.5,,00.0,0617.8,31.1
2021-02-10T18:26:00Z,00000200,01000000,0000.53,0000.28,-000.06,0000.23,0000.06,0000.07,0000.08,-000.04,-000.03,17.0,23.5,,00.0,0617.9,31.1
2021-02-10T18:27:00Z,00000200,01000000,0000.35,0000.12,0000.11,0000.27,0000.00,0000.02,-000.12,-000.07,0000.21,17.1,23.6,,00.0,0618.0,31.1
2021-02-10T18:28:00Z,00000200,01000000,0000.66,0000.43,0000.07,-000.35,-000.08,-000.08,0000.02,-000.01,-000.19,17.2,23.6,,00.0,0618.0,31.1
2021-02-10T18:29:00Z,00000200,01000000,-000.06,-000.05,0000.21,-000.11,-000.07,-000.20,0000.08,0000.39,0000.05,17.2,23.6,,00.0,0618.0,31.1
2021-02-10T18:30:00Z,00000200,01000000,0000.00,0000.13,0000.11,0000.25,0000.12,-000.01,-000.04,-000.24,-000.14,17.2,23.6,,00.0,0618.0,31.1
2021-02-10T18:31:00Z,00000200,01000000,0000.96,0000.04,0000.07,0000.58,0000.17,-000.05,0000.19,-000.14,0000.25,17.1,23.6,,00.0,0618.0,31.0
2021-02-10T18:32:00Z,00000200,01000000,0000.33,0000.16,0000.18,-000.20,0000.23,0000.07,0000.21,0000.19,-000.07,17.1,23.6,,00.0,0618.0,31.1
2021-02-10T18:33:00Z,00000200,01000000,0000.65,-000.00,0000.14,-000.22,0000.05,0000.03,-000.58,0000.01,0000.04,17.0,23.6,,00.0,0617.9,31.1
2021-02-10T18:34:00Z,00000200,01000000,0000.33,0000.32,-000.01,0000.10,-000.06,-000.43,0000.82,-000.02,0000.07,17.0,23.6,,00.0,0618.0,31.1
2021-02-10T18:35:00Z,00000200,01000000,0000.38,0000.29,0000.31,0000.10,-000.05,-000.34,-000.03,0000.34,0000.45,16.9,23.6,,00.0,0618.0,31.1
2021-02-10T18:36:00Z,00000200,01000000,0001.09,0000.00,0000.16,-000.12,-000.25,0000.10,0000.17,-000.08,-000.18,16.9,23.6,,00.0,0618.0,31.0
2021-02-10T18:37:00Z,00000200,01000000,0000.46,0000.00,0000.07,-000.29,0000.15,0000.04,-000.15,0000.15,-000.34,16.9,23.5,,00.0,0618.1,31.0
2021-02-10T18:38:00Z,00000200,01000000,0000.45,0000.11,-000.21,-000.03,0000.30,-000.21,0000.23,0000.23,0000.87,17.0,23.6,,00.0,0618.2,31.0
2021-02-10T18:39:00Z,00000200,01000000,0000.37,0000.08,-000.04,-000.20,0000.02,0000.02,0000.25,0000.23,-000.22,17.1,23.6,,00.0,0618.2,31.1
2021-02-10T18:40:00Z,00000200,01000000,0000.60,0000.10,0000.18,-000.03,0000.10,0000.03,-000.08,0000.11,0000.08,17.2,23.7,,00.0,0618.3,31.1
2021-02-10T18:41:00Z,00000200,01000000,0000.60,0000.27,-000.12,0000.30,0000.14,0000.00,0000.60,0000.16,0000.19,17.2,23.7,,00.0,0618.3,31.1
2021-02-10T18:42:00Z,00000200,01000000,-000.26,0000.20,0000.21,0000.06,0000.04,-000.19,-000.00,0000.00,0000.16,17.3,23.8,,00.0,0618.2,31.1
2021-02-10T18:43:00Z,00000200,01000000,0000.44,-000.01,0000.15,-000.47,0000.03,0000.09,0000.39,0000.54,0000.44,17.4,23.8,,00.0,0618.1,31.1
2021-02-10T18:44:00Z,00000200,01000000,0000.54,-000.12,0000.37,0000.44,0000.05,-000.07,0000.14,0000.18,-000.03,17.4,23.8,,00.0,0618.0,31.1
2021-02-10T18:45:00Z,00000200,01000000,0000.33,0000.22,0000.04,-000.32,0000.32,-000.10,0000.08,0000.36,0000.09,17.3,23.8,,00.0,0618.1,31.1
2021-02-10T18:46:00Z,00000200,01000000,0000.34,0000.13,-000.06,-000.71,0000.12,0000.04,0000.06,-000.23,0000.31,17.3,23.8,,00.0,0618.2,31.1
2021-02-10T18:47:00Z,00000200,01000000,0000.30,0000.21,-000.03,-000.32,0000.08,-000.25,-000.02,-000.02,-000.26,17.2,23.8,,00.0,0618.2,31.1
2021-02-10T18:48:00Z,00000200,01000000,-000.26,0000.20,-000.00,0000.15,0000.14,0000.08,-000.31,-000.18,-000.15,17.2,23.8,,00.0,0618.3,31.1
2021-02-10T18:49:00Z,00000200,01000000,0000.31,0000.11,0000.14,0000.44,0000.18,0000.14,0000.05,0000.01,-000.15,17.1,23.8,,00.0,0618.4,31.1
2021-02-10T18:50:00Z,00000200,01000000,0000.43,-000.07,0000.06,-000.04,0000.08,0000.06,0000.01,-000.39,-000.02,17.0,23.8,,00.0,0618.5,31.1
2021-02-10T18:51:00Z,00000200,01000000,0000.01,0000.09,-000.07,-000.15,0000.14,-000.33,0000.15,0000.16,0000.31,17.0,23.7,,00.0,0618.5,31.0
2021-02-10T18:52:00Z,00000200,01000000,0000.56,0000.22,0000.11,-000.52,0000.16,-000.09,0000.15,0000.41,0000.21,17.0,23.7,,00.0,0618.6,31.0
2021-02-10T18:53:00Z,00000200,01000000,-000.27,0000.09,0000.05,0000.34,0000.27,-000.16,-000.03,-000.06,-000.22,17.1,23.7,,00.0,0618.6,31.1
2021-02-10T18:54:00Z,00000200,01000000,-000.42,-000.22,-000.10,-000.26,0000.06,-000.12,0000.15,-000.10,0000.16,17.2,23.8,,00.0,0618.6,31.1
2021-02-10T18:55:00Z,00000200,01000000,0000.71,-000.06,-000.00,0000.59,0000.09,0000.08,-000.01,0000.23,0000.02,17.3,23.8,,00.0,0618.7,31.1
2021-02-10T18:56:00Z,00000200,01000000,0000.80,0000.19,-000.19,-000.06,0000.11,-000.20,-000.16,-000.08,-000.07,17.3,23.9,,00.0,0618.6,31.1
2021-02-10T18:57:00Z,00000200,41000000,,,,,,,0001.34,0000.94,0000.82,17.3,23.9,,00.0,0618.7,31.1
2021-02-10T18:58:00Z,00000200,61000000,,,,,,,-000.80,-000.50,-000.75,16.9,24.0,,00.0,0617.7,31.1
2021-02-10T18:59:00Z,00000200,21000000,,,,,,,-000.32,-000.39,-000.42,16.8,24.1,,00.0,0617.7,31.1
